Time,TemperatureF,DewpointF,PressureIn,WindDirection,WindDirectionDegrees,WindSpeedMPH,WindSpeedGustMPH,Humidity,HourlyPrecipIn,Conditions,Clouds,dailyrainin,SoftwareType,DateUTC
2013-10-24 00:05:00,50.4,45.0,29.95,ESE,112,0.0,0.0,82,0.00,,,0.00,Customized_open2300,2013-10-24 07:05:00,
2013-10-24 00:10:00,50.4,45.0,29.95,ESE,112,0.0,0.0,82,0.00,,,0.00,Customized_open2300,2013-10-24 07:10:00,
2013-10-24 00:20:00,50.2,44.9,29.95,ESE,112,0.0,0.0,82,0.00,,,0.00,Customized_open2300,2013-10-24 07:20:00,
2013-10-24 00:30:00,50.2,44.9,29.95,ESE,112,0.0,0.0,82,0.00,,,0.00,Customized_open2300,2013-10-24 07:30:00,
2013-10-24 00:40:00,49.8,44.5,29.95,ESE,112,0.0,0.0,82,0.00,,,0.00,Customized_open2300,2013-10-24 07:40:00,
2013-10-24 00:45:00,49.6,44.3,29.95,ESE,112,0.0,0.0,82,0.00,,,0.00,Customized_open2300,2013-10-24 07:45:00,
2013-10-24 00:50:00,49.6,44.3,29.95,ESE,112,0.0,0.0,82,0.00,,,0.00,Customized_open2300,2013-10-24 07:50:00,
2013-10-24 00:55:00,49.6,44.3,29.95,ESE,112,0.0,0.0,82,0.00,,,0.00,Customized_open2300,2013-10-24 07:55:00,
2013-10-24 01:01:00,49.3,44.0,29.95,ESE,112,0.0,0.0,82,0.00,,,0.00,Customized_open2300,2013-10-24 08:01:00,
2013-10-24 01:10:00,49.3,44.0,29.95,ESE,112,0.0,0.0,82,0.00,,,0.00,Customized_open2300,2013-10-24 08:10:00,
2013-10-24 01:15:00,49.3,44.0,29.95,ESE,112,0.0,0.0,82,0.00,,,0.00,Customized_open2300,2013-10-24 08:15:00,
2013-10-24 01:20:00,49.3,44.0,29.95,ESE,112,0.0,0.0,82,0.00,,,0.00,Customized_open2300,2013-10-24 08:20:00,
2013-10-24 01:30:00,48.9,43.6,29.95,ESE,112,0.0,0.0,82,0.00,,,0.00,Customized_open2300,2013-10-24 08:30:00,
2013-10-24 01:40:00,48.7,43.4,29.96,ESE,112,0.0,0.0,82,0.00,,,0.00,Customized_open2300,2013-10-24 08:40:00,
2013-10-24 01:50:00,48.4,43.1,29.96,SE,135,0.0,0.0,82,0.00,,,0.00,Customized_open2300,2013-10-24 08:50:00,
2013-10-24 01:55:00,48.2,42.9,29.96,SE,135,0.0,0.0,82,0.00,,,0.00,Customized_open2300,2013-10-24 08:55:00,
2013-10-24 02:01:00,48.0,42.7,29.96,SE,135,0.0,0.0,82,0.00,,,0.00,Customized_open2300,2013-10-24 09:01:00,
2013-10-24 02:10:00,48.0,42.7,29.96,SE,135,0.0,0.0,82,0.00,,,0.00,Customized_open2300,2013-10-24 09:10:00,
2013-10-24 02:15:00,48.0,42.7,29.96,ESE,112,0.0,0.0,82,0.00,,,0.00,Customized_open2300,2013-10-24 09:15:00,
2013-10-24 02:20:00,48.0,42.7,29.96,ESE,112,0.0,0.0,82,0.00,,,0.00,Customized_open2300,2013-10-24 09:20:00,
2013-10-24 02:25:00,47.8,42.6,29.96,ESE,112,0.0,0.0,82,0.00,,,0.00,Customized_open2300,2013-10-24 09:25:00,
2013-10-24 02:30:00,47.8,42.6,29.96,ESE,112,0.0,0.0,82,0.00,,,0.00,Customized_open2300,2013-10-24 09:30:00,
2013-10-24 02:35:00,47.8,42.6,29.97,ESE,112,0.0,0.0,82,0.00,,,0.00,Customized_open2300,2013-10-24 09:35:00,
2013-10-24 02:40:00,47.7,42.4,29.97,ESE,112,0.0,0.0,82,0.00,,,0.00,Customized_open2300,2013-10-24 09:40:00,
2013-10-24 02:45:00,47.5,42.5,29.97,ESE,112,0.0,0.0,83,0.00,,,0.00,Customized_open2300,2013-10-24 09:45:00,
2013-10-24 02:50:00,47.5,42.5,29.97,SE,135,0.0,0.0,83,0.00,,,0.00,Customized_open2300,2013-10-24 09:50:00,
2013-10-24 02:55:00,47.5,42.5,29.96,SE,135,0.0,0.0,83,0.00,,,0.00,Customized_open2300,2013-10-24 09:55:00,
2013-10-24 03:01:00,47.7,42.7,29.97,SE,135,0.0,0.0,83,0.00,,,0.00,Customized_open2300,2013-10-24 10:01:00,
2013-10-24 03:10:00,47.8,42.9,29.96,SE,135,0.0,0.0,83,0.00,,,0.00,Customized_open2300,2013-10-24 10:10:00,
2013-10-24 03:15:00,47.8,42.9,29.96,SE,135,0.0,0.0,83,0.00,,,0.00,Customized_open2300,2013-10-24 10:15:00,
2013-10-24 03:25:00,48.0,43.4,29.96,SE,135,0.0,0.0,84,0.00,,,0.00,Customized_open2300,2013-10-24 10:25:00,
2013-10-24 03:30:00,48.0,43.4,29.96,ESE,112,0.0,0.0,84,0.00,,,0.00,Customized_open2300,2013-10-24 10:30:00,
2013-10-24 03:40:00,48.0,43.4,29.96,ESE,112,0.0,0.0,84,0.00,,,0.00,Customized_open2300,2013-10-24 10:40:00,
2013-10-24 03:45:00,48.0,43.4,29.96,ESE,112,0.0,0.0,84,0.00,,,0.00,Customized_open2300,2013-10-24 10:45:00,
2013-10-24 03:55:00,48.2,43.6,29.96,ESE,112,0.0,0.0,84,0.00,,,0.00,Customized_open2300,2013-10-24 10:55:00,
2013-10-24 04:01:00,48.2,43.6,29.96,ESE,112,0.0,0.0,84,0.00,,,0.00,Customized_open2300,2013-10-24 11:01:00,
2013-10-24 04:10:00,48.2,43.6,29.96,ESE,112,0.0,0.0,84,0.00,,,0.00,Customized_open2300,2013-10-24 11:10:00,
2013-10-24 04:15:00,48.2,43.6,29.96,ESE,112,0.0,0.0,84,0.00,,,0.00,Customized_open2300,2013-10-24 11:15:00,
2013-10-24 04:25:00,48.2,43.6,29.96,ESE,112,0.0,0.0,84,0.00,,,0.00,Customized_open2300,2013-10-24 11:25:00,
2013-10-24 04:30:00,48.2,43.6,29.96,SE,135,0.0,0.0,84,0.00,,,0.00,Customized_open2300,2013-10-24 11:30:00,
2013-10-24 04:35:00,48.2,43.6,29.96,SE,135,0.0,0.0,84,0.00,,,0.00,Customized_open2300,2013-10-24 11:35:00,
2013-10-24 04:40:00,48.2,43.6,29.96,SE,135,0.0,0.0,84,0.00,,,0.00,Customized_open2300,2013-10-24 11:40:00,
2013-10-24 04:45:00,48.2,43.6,29.96,SE,135,0.0,0.0,84,0.00,,,0.00,Customized_open2300,2013-10-24 11:45:00,
2013-10-24 04:50:00,48.4,43.7,29.96,SE,135,0.0,0.0,84,0.00,,,0.00,Customized_open2300,2013-10-24 11:50:00,
2013-10-24 04:55:00,48.4,43.7,29.96,SE,135,0.0,0.0,84,0.00,,,0.00,Customized_open2300,2013-10-24 11:55:00,
2013-10-24 05:01:00,48.2,43.6,29.96,SE,135,0.0,0.0,84,0.00,,,0.00,Customized_open2300,2013-10-24 12:01:00,
2013-10-24 05:10:00,48.2,43.6,29.96,ESE,112,0.0,0.0,84,0.00,,,0.00,Customized_open2300,2013-10-24 12:10:00,
2013-10-24 05:15:00,48.2,43.9,29.96,ESE,112,0.0,0.0,85,0.00,,,0.00,Customized_open2300,2013-10-24 12:15:00,
2013-10-24 05:20:00,48.2,43.6,29.96,SE,135,0.0,0.0,84,0.00,,,0.00,Customized_open2300,2013-10-24 12:20:00,
2013-10-24 05:25:00,48.0,43.7,29.96,SE,135,0.0,0.0,85,0.00,,,0.00,Customized_open2300,2013-10-24 12:25:00,
2013-10-24 05:35:00,48.0,43.7,29.97,SE,135,0.0,0.0,85,0.00,,,0.00,Customized_open2300,2013-10-24 12:35:00,
2013-10-24 05:40:00,48.0,43.7,29.97,SE,135,0.0,0.0,85,0.00,,,0.00,Customized_open2300,2013-10-24 12:40:00,
2013-10-24 05:45:00,48.0,43.7,29.97,SE,135,0.0,0.0,85,0.00,,,0.00,Customized_open2300,2013-10-24 12:45:00,
2013-10-24 05:50:00,48.0,43.7,29.97,SE,135,0.0,0.0,85,0.00,,,0.00,Customized_open2300,2013-10-24 12:50:00,
2013-10-24 05:55:00,48.0,43.7,29.97,SE,135,0.0,0.0,85,0.00,,,0.00,Customized_open2300,2013-10-24 12:55:00,
2013-10-24 06:01:00,48.0,43.7,29.97,SE,135,0.0,0.0,85,0.00,,,0.00,Customized_open2300,2013-10-24 13:01:00,
2013-10-24 06:10:00,48.0,43.7,29.97,ESE,112,0.0,0.0,85,0.00,,,0.00,Customized_open2300,2013-10-24 13:10:00,
2013-10-24 06:15:00,48.0,43.7,29.97,ESE,112,0.0,0.0,85,0.00,,,0.00,Customized_open2300,2013-10-24 13:15:00,
2013-10-24 06:20:00,48.0,43.7,29.97,SE,135,0.0,0.0,85,0.00,,,0.00,Customized_open2300,2013-10-24 13:20:00,
2013-10-24 06:30:00,48.0,43.7,29.97,SE,135,0.0,0.0,85,0.00,,,0.00,Customized_open2300,2013-10-24 13:30:00,
2013-10-24 06:35:00,48.0,43.7,29.97,ESE,112,0.0,0.0,85,0.00,,,0.00,Customized_open2300,2013-10-24 13:35:00,
2013-10-24 06:45:00,48.0,44.0,29.97,ESE,112,0.0,0.0,86,0.00,,,0.00,Customized_open2300,2013-10-24 13:45:00,
2013-10-24 06:50:00,48.0,44.0,29.97,ESE,112,0.0,0.0,86,0.00,,,0.00,Customized_open2300,2013-10-24 13:50:00,
2013-10-24 06:55:00,48.0,44.0,29.97,ESE,112,0.0,0.0,86,0.00,,,0.00,Customized_open2300,2013-10-24 13:55:00,
2013-10-24 07:01:00,48.0,44.0,29.97,ESE,112,0.0,0.0,86,0.00,,,0.00,Customized_open2300,2013-10-24 14:01:00,
2013-10-24 07:10:00,48.0,44.0,29.97,SE,135,0.0,0.0,86,0.00,,,0.00,Customized_open2300,2013-10-24 14:10:00,
2013-10-24 07:15:00,48.0,44.0,29.97,SE,135,0.0,0.0,86,0.00,,,0.00,Customized_open2300,2013-10-24 14:15:00,
2013-10-24 07:20:00,48.0,44.0,29.97,SE,135,0.0,0.0,86,0.00,,,0.00,Customized_open2300,2013-10-24 14:20:00,
2013-10-24 07:25:00,48.0,44.0,29.97,SE,135,0.0,0.0,86,0.00,,,0.00,Customized_open2300,2013-10-24 14:25:00,
2013-10-24 07:30:00,48.0,44.0,29.97,SE,135,0.0,0.0,86,0.00,,,0.00,Customized_open2300,2013-10-24 14:30:00,
2013-10-24 07:35:00,48.0,44.0,29.97,SE,135,0.0,0.0,86,0.00,,,0.00,Customized_open2300,2013-10-24 14:35:00,
2013-10-24 07:45:00,48.0,44.0,29.98,SE,135,0.0,0.0,86,0.00,,,0.00,Customized_open2300,2013-10-24 14:45:00,
2013-10-24 07:50:00,48.0,44.0,29.98,SE,135,0.0,0.0,86,0.00,,,0.00,Customized_open2300,2013-10-24 14:50:00,
2013-10-24 07:55:00,48.0,44.0,29.98,SE,135,0.0,0.0,86,0.00,,,0.00,Customized_open2300,2013-10-24 14:55:00,
2013-10-24 08:00:00,48.2,44.2,29.98,SE,135,0.0,0.0,86,0.00,,,0.00,Customized_open2300,2013-10-24 15:00:00,
2013-10-24 08:05:00,48.2,44.2,29.98,SE,135,0.0,0.0,86,0.00,,,0.00,Customized_open2300,2013-10-24 15:05:00,
2013-10-24 08:10:00,48.2,44.2,29.98,SE,135,0.0,0.0,86,0.00,,,0.00,Customized_open2300,2013-10-24 15:10:00,
2013-10-24 08:20:00,48.2,44.5,29.99,SE,135,0.0,0.0,87,0.00,,,0.00,Customized_open2300,2013-10-24 15:20:00,
2013-10-24 08:25:00,48.4,44.7,29.99,SE,135,0.0,0.0,87,0.00,,,0.00,Customized_open2300,2013-10-24 15:25:00,
2013-10-24 08:35:00,48.4,44.7,29.99,SE,135,0.0,0.0,87,0.00,,,0.00,Customized_open2300,2013-10-24 15:35:00,
2013-10-24 08:45:00,48.4,44.7,29.99,SE,135,0.0,0.0,87,0.00,,,0.00,Customized_open2300,2013-10-24 15:45:00,
2013-10-24 08:55:00,48.4,44.7,30.00,SE,135,0.0,0.0,87,0.00,,,0.00,Customized_open2300,2013-10-24 15:55:00,
2013-10-24 09:05:00,48.6,44.9,30.00,SE,135,0.0,0.0,87,0.00,,,0.00,Customized_open2300,2013-10-24 16:05:00,
2013-10-24 09:10:00,48.6,44.9,30.00,SE,135,0.0,0.0,87,0.00,,,0.00,Customized_open2300,2013-10-24 16:10:00,
2013-10-24 09:15:00,48.7,45.0,30.00,SE,135,0.0,0.0,87,0.00,,,0.00,Customized_open2300,2013-10-24 16:15:00,
2013-10-24 09:20:00,48.7,45.0,30.00,SE,135,0.0,0.0,87,0.00,,,0.00,Customized_open2300,2013-10-24 16:20:00,
2013-10-24 09:25:00,48.7,45.0,30.00,SE,135,0.0,0.0,87,0.00,,,0.00,Customized_open2300,2013-10-24 16:25:00,
2013-10-24 09:30:00,48.7,45.0,30.00,SE,135,0.0,0.0,87,0.00,,,0.00,Customized_open2300,2013-10-24 16:30:00,
2013-10-24 09:35:00,48.9,45.2,30.00,SE,135,0.0,0.0,87,0.00,,,0.00,Customized_open2300,2013-10-24 16:35:00,
2013-10-24 09:40:00,48.9,45.2,30.00,SE,135,0.0,0.0,87,0.00,,,0.00,Customized_open2300,2013-10-24 16:40:00,
2013-10-24 09:45:00,48.9,45.2,30.00,ESE,112,0.0,0.0,87,0.00,,,0.00,Customized_open2300,2013-10-24 16:45:00,
2013-10-24 09:50:00,48.9,45.2,30.00,ESE,112,0.0,0.0,87,0.00,,,0.00,Customized_open2300,2013-10-24 16:50:00,
2013-10-24 09:55:00,49.1,45.7,30.00,SE,135,0.0,0.0,88,0.00,,,0.00,Customized_open2300,2013-10-24 16:55:00,
2013-10-24 10:00:00,49.1,45.7,30.00,ESE,112,0.0,0.0,88,0.00,,,0.00,Customized_open2300,2013-10-24 17:00:00,
2013-10-24 10:05:00,49.1,45.7,30.00,SE,135,0.0,0.0,88,0.00,,,0.00,Customized_open2300,2013-10-24 17:05:00,
2013-10-24 10:15:00,49.3,45.8,30.00,SE,135,0.0,0.0,88,0.00,,,0.00,Customized_open2300,2013-10-24 17:15:00,
2013-10-24 10:20:00,49.3,45.8,30.00,SE,135,0.0,0.0,88,0.00,,,0.00,Customized_open2300,2013-10-24 17:20:00,
2013-10-24 10:25:00,49.5,46.0,30.00,ESE,112,0.0,0.0,88,0.00,,,0.00,Customized_open2300,2013-10-24 17:25:00,
2013-10-24 10:35:00,49.6,46.2,30.00,ESE,112,0.0,0.0,88,0.00,,,0.00,Customized_open2300,2013-10-24 17:35:00,
2013-10-24 10:40:00,49.8,46.3,30.01,SE,135,0.0,0.0,88,0.00,,,0.00,Customized_open2300,2013-10-24 17:40:00,
2013-10-24 10:50:00,49.8,46.6,30.01,SE,135,0.0,0.0,89,0.00,,,0.00,Customized_open2300,2013-10-24 17:50:00,
2013-10-24 11:00:00,49.8,46.6,30.01,SW,225,0.0,0.0,89,0.00,,,0.00,Customized_open2300,2013-10-24 18:00:00,
2013-10-24 11:05:00,49.6,46.5,30.01,SW,225,0.0,0.0,89,0.00,,,0.00,Customized_open2300,2013-10-24 18:05:00,
2013-10-24 11:15:00,49.8,46.6,30.02,WSW,247,0.0,0.0,89,0.00,,,0.00,Customized_open2300,2013-10-24 18:15:00,
2013-10-24 11:20:00,49.8,46.6,30.02,WSW,247,0.0,0.0,89,0.00,,,0.00,Customized_open2300,2013-10-24 18:20:00,
2013-10-24 11:30:00,49.8,46.6,30.02,WSW,247,0.0,0.0,89,0.00,,,0.00,Customized_open2300,2013-10-24 18:30:00,
2013-10-24 11:40:00,49.8,46.6,30.02,WSW,247,0.0,0.0,89,0.00,,,0.00,Customized_open2300,2013-10-24 18:40:00,
2013-10-24 11:45:00,49.8,46.6,30.02,WSW,247,0.0,0.0,89,0.00,,,0.00,Customized_open2300,2013-10-24 18:45:00,
2013-10-24 11:50:00,50.0,46.8,30.02,WSW,247,0.0,0.0,89,0.00,,,0.00,Customized_open2300,2013-10-24 18:50:00,
2013-10-24 11:55:00,49.8,46.6,30.02,WSW,247,0.0,0.0,89,0.00,,,0.00,Customized_open2300,2013-10-24 18:55:00,
2013-10-24 12:05:00,50.0,46.8,30.02,WSW,247,0.0,0.0,89,0.00,,,0.00,Customized_open2300,2013-10-24 19:05:00,
2013-10-24 12:10:00,49.8,46.6,30.02,West,270,0.0,0.0,89,0.00,,,0.00,Customized_open2300,2013-10-24 19:10:00,
2013-10-24 12:20:00,50.2,47.0,30.02,West,270,0.0,0.0,89,0.00,,,0.00,Customized_open2300,2013-10-24 19:20:00,
2013-10-24 12:30:00,50.2,47.0,30.01,West,270,0.0,0.0,89,0.00,,,0.00,Customized_open2300,2013-10-24 19:30:00,
2013-10-24 12:35:00,50.2,47.0,30.01,West,270,0.0,0.0,89,0.00,,,0.00,Customized_open2300,2013-10-24 19:35:00,
2013-10-24 12:40:00,50.4,47.2,30.01,ENE,67,0.0,0.0,89,0.00,,,0.00,Customized_open2300,2013-10-24 19:40:00,
2013-10-24 12:50:00,50.5,47.4,30.00,ENE,67,0.0,0.0,89,0.00,,,0.00,Customized_open2300,2013-10-24 19:50:00,
2013-10-24 12:55:00,50.7,47.5,30.00,ENE,67,0.0,0.0,89,0.00,,,0.00,Customized_open2300,2013-10-24 19:55:00,
2013-10-24 13:05:00,50.9,47.7,30.00,ENE,67,0.0,0.0,89,0.00,,,0.00,Customized_open2300,2013-10-24 20:05:00,
2013-10-24 13:10:00,51.1,47.9,30.00,ENE,67,0.0,0.0,89,0.00,,,0.00,Customized_open2300,2013-10-24 20:10:00,
2013-10-24 13:15:00,51.3,48.4,30.00,ENE,67,0.0,0.0,90,0.00,,,0.00,Customized_open2300,2013-10-24 20:15:00,
2013-10-24 13:20:00,51.4,48.3,29.99,ENE,67,0.0,0.0,89,0.00,,,0.00,Customized_open2300,2013-10-24 20:20:00,
2013-10-24 13:25:00,51.4,48.3,29.99,ENE,67,0.0,0.0,89,0.00,,,0.00,Customized_open2300,2013-10-24 20:25:00,
2013-10-24 13:35:00,51.6,48.4,30.00,ENE,67,0.0,0.0,89,0.00,,,0.00,Customized_open2300,2013-10-24 20:35:00,
2013-10-24 13:40:00,51.6,48.4,30.00,ENE,67,0.0,0.0,89,0.00,,,0.00,Customized_open2300,2013-10-24 20:40:00,
2013-10-24 13:45:00,51.6,48.4,29.99,NE,45,0.0,0.0,89,0.00,,,0.00,Customized_open2300,2013-10-24 20:45:00,
2013-10-24 13:50:00,51.8,48.6,29.99,NE,45,0.0,0.0,89,0.00,,,0.00,Customized_open2300,2013-10-24 20:50:00,
2013-10-24 14:00:00,52.0,48.8,29.99,NE,45,0.0,0.0,89,0.00,,,0.00,Customized_open2300,2013-10-24 21:00:00,
2013-10-24 14:10:00,52.0,48.8,29.99,NE,45,0.0,0.0,89,0.00,,,0.00,Customized_open2300,2013-10-24 21:10:00,
2013-10-24 14:15:00,52.0,48.8,29.99,ENE,67,0.0,0.0,89,0.00,,,0.00,Customized_open2300,2013-10-24 21:15:00,
2013-10-24 14:25:00,52.2,49.0,29.99,NE,45,0.0,0.0,89,0.00,,,0.00,Customized_open2300,2013-10-24 21:25:00,
2013-10-24 14:30:00,52.3,49.2,29.99,NE,45,0.0,0.0,89,0.00,,,0.00,Customized_open2300,2013-10-24 21:30:00,
2013-10-24 14:40:00,52.3,49.2,29.99,NE,45,0.0,0.0,89,0.00,,,0.00,Customized_open2300,2013-10-24 21:40:00,
2013-10-24 14:55:00,52.5,49.3,29.99,ENE,67,0.0,0.0,89,0.00,,,0.00,Customized_open2300,2013-10-24 21:55:00,
2013-10-24 15:00:00,52.7,49.5,29.99,ENE,67,0.0,0.0,89,0.00,,,0.00,Customized_open2300,2013-10-24 22:00:00,
2013-10-24 15:11:00,52.9,49.7,29.99,NE,45,0.0,0.0,89,0.00,,,0.00,Customized_open2300,2013-10-24 22:11:00,
2013-10-24 15:20:00,53.2,50.1,29.99,NW,315,0.0,0.0,89,0.00,,,0.00,Customized_open2300,2013-10-24 22:20:00,
2013-10-24 15:25:00,53.2,50.1,29.99,NW,315,0.0,0.0,89,0.00,,,0.00,Customized_open2300,2013-10-24 22:25:00,
2013-10-24 15:30:00,53.2,50.1,29.98,NW,315,0.0,0.0,89,0.00,,,0.00,Customized_open2300,2013-10-24 22:30:00,
2013-10-24 15:35:00,53.2,50.1,29.99,NW,315,0.0,0.0,89,0.00,,,0.00,Customized_open2300,2013-10-24 22:35:00,
2013-10-24 15:40:00,53.4,50.2,29.99,NW,315,0.0,0.0,89,0.00,,,0.00,Customized_open2300,2013-10-24 22:40:00,
2013-10-24 15:45:00,53.4,50.2,29.99,NW,315,0.0,0.0,89,0.00,,,0.00,Customized_open2300,2013-10-24 22:45:00,
2013-10-24 15:55:00,53.4,50.2,29.99,NW,315,0.0,0.0,89,0.00,,,0.00,Customized_open2300,2013-10-24 22:55:00,
2013-10-24 16:00:00,53.6,50.4,29.99,NW,315,0.0,0.0,89,0.00,,,0.00,Customized_open2300,2013-10-24 23:00:00,
2013-10-24 16:10:00,53.8,50.6,29.99,NW,315,0.0,0.0,89,0.00,,,0.00,Customized_open2300,2013-10-24 23:10:00,
2013-10-24 16:15:00,53.8,50.6,29.98,NW,315,0.0,0.0,89,0.00,,,0.00,Customized_open2300,2013-10-24 23:15:00,
2013-10-24 16:25:00,53.8,50.6,29.99,NW,315,0.0,0.0,89,0.00,,,0.00,Customized_open2300,2013-10-24 23:25:00,
2013-10-24 16:30:00,53.8,50.6,29.99,NW,315,0.0,0.0,89,0.00,,,0.00,Customized_open2300,2013-10-24 23:30:00,
2013-10-24 16:35:00,53.8,50.6,29.98,WSW,247,0.0,0.0,89,0.00,,,0.00,Customized_open2300,2013-10-24 23:35:00,
2013-10-24 16:40:00,53.8,50.6,29.98,NW,315,0.0,0.0,89,0.00,,,0.00,Customized_open2300,2013-10-24 23:40:00,
2013-10-24 16:45:00,54.0,50.8,29.98,NW,315,0.0,0.0,89,0.00,,,0.00,Customized_open2300,2013-10-24 23:45:00,
2013-10-24 16:55:00,53.8,50.6,29.98,NW,315,0.0,0.0,89,0.00,,,0.00,Customized_open2300,2013-10-24 23:55:00,
2013-10-24 17:00:00,54.0,50.8,29.98,NW,315,0.0,0.0,89,0.00,,,0.00,Customized_open2300,2013-10-25 00:00:00,
2013-10-24 17:10:00,54.0,50.8,29.98,NW,315,0.0,0.0,89,0.00,,,0.00,Customized_open2300,2013-10-25 00:10:00,
2013-10-24 17:15:00,54.0,50.8,29.99,NW,315,0.0,0.0,89,0.00,,,0.00,Customized_open2300,2013-10-25 00:15:00,
2013-10-24 17:25:00,53.8,50.3,29.99,NW,315,0.0,0.0,88,0.00,,,0.00,Customized_open2300,2013-10-25 00:25:00,
2013-10-24 17:35:00,53.8,50.3,29.99,NW,315,0.0,0.0,88,0.00,,,0.00,Customized_open2300,2013-10-25 00:35:00,
2013-10-24 17:40:00,53.8,50.3,29.99,NW,315,0.0,0.0,88,0.00,,,0.00,Customized_open2300,2013-10-25 00:40:00,
2013-10-24 17:50:00,53.6,50.1,29.99,NW,315,0.0,0.0,88,0.00,,,0.00,Customized_open2300,2013-10-25 00:50:00,
2013-10-24 17:55:00,53.4,49.9,29.99,NW,315,0.0,0.0,88,0.00,,,0.00,Customized_open2300,2013-10-25 00:55:00,
2013-10-24 18:35:00,52.7,49.2,30.01,NW,315,0.0,0.0,88,0.00,,,0.00,Customized_open2300,2013-10-25 01:35:00,
2013-10-24 18:40:00,52.7,49.2,30.01,NW,315,0.0,0.0,88,0.00,,,0.00,Customized_open2300,2013-10-25 01:40:00,
2013-10-24 18:50:00,52.3,48.8,30.01,NW,315,0.0,0.0,88,0.00,,,0.00,Customized_open2300,2013-10-25 01:50:00,
2013-10-24 18:55:00,52.2,48.7,30.01,NW,315,0.0,0.0,88,0.00,,,0.00,Customized_open2300,2013-10-25 01:55:00,
2013-10-24 19:00:00,52.0,48.5,30.01,NW,315,0.0,0.0,88,0.00,,,0.00,Customized_open2300,2013-10-25 02:00:00,
2013-10-24 19:05:00,52.0,48.5,30.01,NW,315,0.0,0.0,88,0.00,,,0.00,Customized_open2300,2013-10-25 02:05:00,
2013-10-24 19:10:00,51.6,48.1,30.01,NW,315,0.0,0.0,88,0.00,,,0.00,Customized_open2300,2013-10-25 02:10:00,
2013-10-24 19:20:00,51.3,47.8,30.01,NW,315,0.0,0.0,88,0.00,,,0.00,Customized_open2300,2013-10-25 02:20:00,
2013-10-24 19:25:00,51.1,47.6,30.01,NW,315,0.0,0.0,88,0.00,,,0.00,Customized_open2300,2013-10-25 02:25:00,
2013-10-24 19:35:00,50.5,47.0,30.01,NW,315,0.0,0.0,88,0.00,,,0.00,Customized_open2300,2013-10-25 02:35:00,
2013-10-24 19:40:00,50.5,46.7,30.01,NW,315,0.0,0.0,87,0.00,,,0.00,Customized_open2300,2013-10-25 02:40:00,
2013-10-24 19:50:00,50.4,46.6,30.01,NW,315,0.0,0.0,87,0.00,,,0.00,Customized_open2300,2013-10-25 02:50:00,
2013-10-24 19:55:00,50.4,46.6,30.02,NW,315,0.0,0.0,87,0.00,,,0.00,Customized_open2300,2013-10-25 02:55:00,
2013-10-24 20:00:00,50.2,46.4,30.02,NW,315,0.0,0.0,87,0.00,,,0.00,Customized_open2300,2013-10-25 03:00:00,
2013-10-24 20:10:00,49.8,46.0,30.02,NW,315,0.0,0.0,87,0.00,,,0.00,Customized_open2300,2013-10-25 03:10:00,
2013-10-24 20:15:00,49.8,46.0,30.02,NW,315,0.0,0.0,87,0.00,,,0.00,Customized_open2300,2013-10-25 03:15:00,
2013-10-24 20:25:00,49.6,45.9,30.02,NW,315,0.0,0.0,87,0.00,,,0.00,Customized_open2300,2013-10-25 03:25:00,
2013-10-24 20:30:00,49.6,45.9,30.02,NW,315,0.0,0.0,87,0.00,,,0.00,Customized_open2300,2013-10-25 03:30:00,
2013-10-24 20:35:00,49.3,45.5,30.02,NW,315,0.0,0.0,87,0.00,,,0.00,Customized_open2300,2013-10-25 03:35:00,
2013-10-24 20:40:00,49.3,45.5,30.02,NW,315,0.0,0.0,87,0.00,,,0.00,Customized_open2300,2013-10-25 03:40:00,
2013-10-24 20:45:00,49.1,45.4,30.02,NW,315,0.0,0.0,87,0.00,,,0.00,Customized_open2300,2013-10-25 03:45:00,
2013-10-24 20:50:00,48.9,45.2,30.03,NW,315,0.0,0.0,87,0.00,,,0.00,Customized_open2300,2013-10-25 03:50:00,
2013-10-24 20:55:00,48.7,45.0,30.03,NW,315,0.0,0.0,87,0.00,,,0.00,Customized_open2300,2013-10-25 03:55:00,
2013-10-24 21:00:00,48.6,44.9,30.03,NW,315,0.0,0.0,87,0.00,,,0.00,Customized_open2300,2013-10-25 04:00:00,
2013-10-24 21:05:00,48.4,44.7,30.03,NW,315,0.0,0.0,87,0.00,,,0.00,Customized_open2300,2013-10-25 04:05:00,
2013-10-24 21:10:00,48.4,44.7,30.03,NW,315,0.0,0.0,87,0.00,,,0.00,Customized_open2300,2013-10-25 04:10:00,
2013-10-24 21:15:00,48.4,44.4,30.03,NW,315,0.0,0.0,86,0.00,,,0.00,Customized_open2300,2013-10-25 04:15:00,
2013-10-24 21:20:00,48.2,44.2,30.03,NW,315,0.0,0.0,86,0.00,,,0.00,Customized_open2300,2013-10-25 04:20:00,
2013-10-24 21:25:00,48.0,44.0,30.03,NW,315,0.0,0.0,86,0.00,,,0.00,Customized_open2300,2013-10-25 04:25:00,
2013-10-24 21:30:00,48.0,44.0,30.04,NW,315,0.0,0.0,86,0.00,,,0.00,Customized_open2300,2013-10-25 04:30:00,
2013-10-24 21:40:00,48.0,44.0,30.04,NW,315,0.0,0.0,86,0.00,,,0.00,Customized_open2300,2013-10-25 04:40:00,
2013-10-24 21:45:00,47.8,43.8,30.05,NW,315,0.0,0.0,86,0.00,,,0.00,Customized_open2300,2013-10-25 04:45:00,
2013-10-24 21:50:00,47.7,43.7,30.04,NW,315,0.0,0.0,86,0.00,,,0.00,Customized_open2300,2013-10-25 04:50:00,
2013-10-24 21:55:00,47.5,43.5,30.05,NW,315,0.0,0.0,86,0.00,,,0.00,Customized_open2300,2013-10-25 04:55:00,
2013-10-24 22:05:00,47.1,43.2,30.05,NW,315,0.0,0.0,86,0.00,,,0.00,Customized_open2300,2013-10-25 05:05:00,
2013-10-24 22:15:00,47.1,43.2,30.05,NW,315,0.0,0.0,86,0.00,,,0.00,Customized_open2300,2013-10-25 05:15:00,
2013-10-24 22:25:00,46.6,42.6,30.05,NW,315,0.0,0.0,86,0.00,,,0.00,Customized_open2300,2013-10-25 05:25:00,
2013-10-24 22:30:00,46.6,42.6,30.05,NW,315,0.0,0.0,86,0.00,,,0.00,Customized_open2300,2013-10-25 05:30:00,
2013-10-24 22:40:00,46.6,42.6,30.05,NW,315,0.0,0.0,86,0.00,,,0.00,Customized_open2300,2013-10-25 05:40:00,
2013-10-24 22:45:00,46.2,42.3,30.05,NW,315,0.0,0.0,86,0.00,,,0.00,Customized_open2300,2013-10-25 05:45:00,
2013-10-24 22:55:00,46.0,42.1,30.05,NW,315,0.0,0.0,86,0.00,,,0.00,Customized_open2300,2013-10-25 05:55:00,
2013-10-24 23:01:00,46.0,42.1,30.05,NW,315,0.0,0.0,86,0.00,,,0.00,Customized_open2300,2013-10-25 06:01:00,
2013-10-24 23:10:00,45.9,41.9,30.05,NW,315,0.0,0.0,86,0.00,,,0.00,Customized_open2300,2013-10-25 06:10:00,
2013-10-24 23:15:00,45.7,41.8,30.05,NW,315,0.0,0.0,86,0.00,,,0.00,Customized_open2300,2013-10-25 06:15:00,
2013-10-24 23:25:00,45.5,41.3,30.05,NW,315,0.0,0.0,85,0.00,,,0.00,Customized_open2300,2013-10-25 06:25:00,
2013-10-24 23:30:00,45.3,41.1,30.05,NW,315,0.0,0.0,85,0.00,,,0.00,Customized_open2300,2013-10-25 06:30:00,
2013-10-24 23:40:00,45.3,41.1,30.05,NW,315,0.0,0.0,85,0.00,,,0.00,Customized_open2300,2013-10-25 06:40:00,
2013-10-24 23:45:00,45.1,40.9,30.05,NW,315,0.0,0.0,85,0.00,,,0.00,Customized_open2300,2013-10-25 06:45:00,
2013-10-24 23:50:00,45.0,40.7,30.05,NW,315,0.0,0.0,85,0.00,,,0.00,Customized_open2300,2013-10-25 06:50:00,
2013-10-24 23:55:00,45.0,40.7,30.05,NW,315,0.0,0.0,85,0.00,,,0.00,Customized_open2300,2013-10-25 06:55:00,